Temperature
12 12 12 12 13 13 13 13 13 13 13 13 13 13 14 14 14 14 14 14 14 14 14 14 14 14 14 14 14 14 14 14 15 15 14 14 14 14 14 14 14 14 14
13 12 12 12 12 13 13 13 13 13 13 13 13 13 13 13 14 14 14 14 14 14 14 14 14 14 14 14 14 14 14 14 14 14 14 14 14 14 14 14 14 14 14
12 12 12 12 12 12 13 13 13 13 13 13 13 13 13 13 13 13 13 14 13 13 14 13 14 14 14 14 14 14 14 14 14 14 14 14 14 14 14 14 14 14 14
12 12 12 12 12 12 12 12 12 12 12 13 13 13 13 13 13 13 13 13 13 13 13 13 13 13 14 14 14 14 14 14 14 14 14 14 14 14 14 14 14 14 14
12 12 12 12 12 12 12 12 12 12 12 12 12 13 13 13 13 13 13 13 13 13 13 13 13 13 13 14 14 14 14 14 14 14 14 14 14 13 13 13 13 13 13
11 11 11 11 11 11 11 11 11 12 12 12 12 12 12 12 12 12 12 12 12 13 13 13 13 13 13 13 13 13 13 13 13 13 13 13 13 13 13 13 13 13 13
11 11 11 11 11 11 11 11 11 11 11 12 12 12 12 12 12 12 12 12 12 12 12 12 12 12 13 13 13 13 13 13 13 13 13 13 12 12 13 13 13 13 13
11 11 11 11 11 11 11 11 11 11 11 11 12 12 12 12 12 12 12 12 12 12 12 12 12 12 12 12 13 13 13 13 13 13 13 12 12 12 12 12 12 12 13
10 10 10 10 10 11 11 11 11 11 11 11 12 12 12 12 12 12 12 12 12 12 12 12 12 12 12 12 12 12 12 12 12 12 12 12 12 12 12 12 12 12 12
9 10 10 10 10 10 10 10 11 11 11 11 11 11 12 12 12 12 12 12 11 12 11 11 11 11 12 12 12 12 12 12 12 12 12 11 11 11 11 12 11 11 11
9 9 9 9 9 10 10 10 10 10 11 11 11 11 11 11 11 11 11 11 11 11 11 11 11 11 11 11 11 11 11 11 12 11 11 11 11 11 11 11 11 11 11
9 9 9 9 9 9 9 10 10 10 10 10 10 10 10 11 11 11 11 11 11 11 11 11 11 10 11 11 11 11 11 11 11 11 11 11 11 11 11 11 11 11 11
9 9 9 8 9 9 9 9 9 9 10 10 10 10 10 10 10 10 10 10 10 10 10 10 10 10 10 10 10 10 10 10 10 11 11 10 10 10 10 10 10 11 11
8 8 8 8 8 8 8 8 9 9 9 9 9 9 9 9 9 10 10 10 10 10 10 10 9 9 9 10 10 10 10 10 10 10 10 10 10 10 10 10 10 10 10
8 8 8 8 8 8 8 8 8 8 8 8 9 9 9 9 9 9 9 9 9 9 9 9 9 9 9 9 9 9 9 9 9 9 10 10 10 9 9 9 9 10 10
7 7 7 7 7 7 7 7 7 8 8 8 8 8 8 8 8 8 8 8 8 8 8 8 8 8 8 9 9 9 9 9 9 9 9 9 9 9 9 9 9 9 9
7 7 7 7 6 6 6 7 7 7 7 7 7 7 8 8 8 8 8 8 8 8 8 8 8 8 8 8 8 8 8 8 8 8 8 9 9 9 9 9 9 9 9
6 6 6 6 6 6 6 6 6 6 6 7 7 7 7 7 7 7 7 7 7 7 7 7 7 7 7 7 7 8 8 8 8 8 8 8 8 8 8 8 8 8 8
6 6 6 6 5 5 5 6 6 6 6 6 6 6 6 6 6 6 6 7 7 7 7 7 7 7 7 7 7 7 7 7 7 7 7 7 7 7 8 8 8 8 8
6 5 5 5 5 5 5 5 5 5 5 5 5 5 5 5 6 6 6 6 6 6 6 6 6 6 6 6 6 6 6 6 6 6 7 7 7 7 7 7 7 7 7
5 5 5 5 5 5 4 5 5 5 5 5 5 5 5 5 5 5 5 5 5 5 5 5 5 5 5 5 6 6 6 6 6 6 6 6 6 6 6 6 6 6 6
5 4 4 4 4 4 4 4 4 4 4 4 4 4 4 4 4 4 4 4 5 5 5 5 5 5 5 4 4 4 4 4 5 5 5 5 5 5 5 5 6 6 6
4 4 4 4 4 4 4 4 3 3 4 4 4 4 4 3 3 3 3 4 4 4 4 4 4 4 4 4 4 4 4 4 3 4 4 5 5 5 5 5 5 5 5
4 4 4 3 3 3 3 3 3 3 3 3 3 3 3 3 3 3 3 3 3 3 3 3 3 3 3 3 3 3 3 3 3 3 3 4 4 4 4 4 4 4 4
3 3 3 3 3 3 2 2 3 3 3 3 3 3 3 3 2 2 2 2 2 2 3 3 3 3 3 3 3 2 2 2 2 2 2 3 3 3 3 3 3 3 3
3 3 3 2 2 2 2 2 2 2 2 2 2 2 2 2 2 2 2 2 2 2 2 2 2 2 2 2 2 2 2 2 2 2 2 2 2 3 3 3 3 3 3
Wind_Speed
1 2 1 3 5 7 8 9 10 11 11 12 12 12 12 13 13 13 13 13 13 14 14 15 15 15 15 16 16 16 16 16 16 17 16 16 17 17 17 17 16 15 17
1 1 3 4 6 7 8 9 10 11 11 12 12 12 12 12 13 13 13 13 13 13 14 14 15 15 15 16 16 16 16 16 16 16 16 15 15 16 16 16 16 15 17
3 3 3 5 7 8 8 8 9 10 10 11 12 12 12 12 13 13 13 13 13 13 13 14 14 15 15 15 15 15 15 15 15 15 14 12 13 15 15 16 16 17 17
4 5 4 6 8 8 9 9 9 10 10 11 12 12 12 12 12 12 12 12 13 13 13 14 15 15 15 15 15 15 15 15 14 13 12 11 11 13 14 14 15 15 16
5 6 5 8 8 9 9 9 9 9 10 10 11 11 11 11 12 12 12 12 12 12 13 13 14 14 14 14 14 14 14 14 14 12 11 11 10 12 12 13 13 14 14
5 6 6 8 8 8 9 9 9 9 9 10 10 11 11 11 11 12 12 11 12 12 12 12 13 13 13 13 14 14 14 13 13 12 11 10 10 11 12 12 12 12 12
5 6 6 8 8 8 9 9 9 9 10 10 10 10 11 11 11 11 11 12 11 11 11 11 12 12 13 13 13 13 13 13 12 11 10 9 9 10 11 11 12 12 11
6 7 7 7 8 8 8 9 9 9 9 10 9 9 10 10 10 10 10 11 11 11 10 11 11 11 12 12 12 13 12 12 11 10 9 8 9 10 10 11 11 11 11
7 7 8 8 8 8 8 8 9 9 9 9 9 9 9 9 10 10 9 9 10 10 10 10 10 11 11 11 12 12 12 12 11 9 8 7 8 9 9 9 10 10 11
6 6 7 8 9 8 8 8 8 9 9 9 9 10 10 9 9 9 9 9 9 9 9 10 11 11 11 11 12 11 11 11 10 9 7 7 8 9 9 9 9 9 9
4 4 6 7 7 8 8 8 8 9 10 10 10 10 10 10 10 9 9 9 9 9 9 10 11 12 12 11 11 11 11 10 9 8 7 8 8 8 9 9 8 8 8
3 2 3 5 6 7 7 8 8 8 9 10 10 10 10 10 9 9 9 10 9 9 10 11 11 12 11 10 10 10 9 9 8 7 6 7 8 8 8 8 8 8 7
4 3 3 4 5 6 6 7 7 7 8 9 9 10 9 9 9 9 9 9 9 9 9 9 10 10 10 9 9 9 9 8 7 6 6 7 7 8 8 7 7 7 7
4 3 3 4 5 5 6 6 6 6 6 7 7 8 8 7 7 7 8 8 8 8 8 9 8 9 9 9 9 9 8 7 7 7 6 7 7 7 7 7 7 7 7
4 4 3 3 4 5 5 5 5 5 5 6 6 7 7 6 5 6 6 7 7 8 7 7 7 7 7 8 8 8 7 7 7 7 6 7 7 7 7 7 6 6 6
6 5 4 4 4 5 4 4 4 4 5 5 6 6 6 6 5 4 5 5 6 6 6 6 6 6 5 6 6 6 6 6 6 6 7 6 7 7 7 6 6 5 5
7 6 5 5 4 5 4 4 4 4 5 4 5 5 6 5 5 4 4 4 4 5 6 6 6 6 5 5 5 5 5 6 6 6 6 6 6 6 7 6 6 5 4
6 6 6 5 5 4 4 4 4 4 4 4 4 4 5 5 5 4 3 3 4 5 5 4 4 3 3 3 3 3 4 4 5 5 5 6 6 6 6 7 6 6 5
7 7 7 5 5 4 4 4 4 3 3 3 4 3 3 4 4 4 3 3 4 4 4 3 3 2 2 2 2 2 3 3 4 4 5 5 5 6 6 7 7 7 6
5 6 7 6 5 5 3 3 2 2 2 2 2 3 3 3 3 3 3 3 3 3 2 2 2 2 2 2 2 2 2 2 3 3 3 4 5 5 6 6 6 5 5
4 5 6 6 6 5 4 3 3 2 2 1 1 2 3 3 3 3 2 2 2 2 2 2 2 2 2 2 2 2 2 2 2 2 3 4 4 4 5 5 5 5 4
5 5 6 6 7 6 5 4 2 2 2 2 2 2 3 3 4 3 2 2 1 1 2 2 2 2 1 1 1 1 1 2 2 1 2 2 2 4 4 4 5 5 4
6 6 6 6 6 6 5 3 2 2 1 1 2 2 2 3 4 3 3 2 2 2 3 3 3 3 2 0 1 1 2 2 2 2 1 1 1 2 3 4 3 3 3
6 5 5 6 6 5 5 5 6 4 3 4 3 3 3 3 4 4 4 3 3 2 2 4 4 2 3 2 0 0 0 1 1 1 2 1 1 1 2 2 2 2 2
4 4 4 4 5 5 6 6 6 5 4 2 2 3 3 3 3 4 5 4 4 3 3 3 4 3 3 3 2 1 0 1 1 1 3 3 2 2 2 2 2 2 2
2 2 3 3 5 5 5 5 6 6 4 4 4 4 3 3 3 4 5 5 4 4 4 4 4 5 4 4 3 3 2 2 2 1 2 3 3 3 3 2 2 2 2
Wind_Direction
244 296 115 95 90 86 89 91 90 86 87 89 89 88 85 84 84 84 82 81 79 79 78 76 77 78 80 78 77 79 81 80 77 75 75 76 78 80 79 77 78 78 81
174 186 124 111 100 93 91 89 91 89 87 88 88 88 87 86 85 83 83 82 81 81 80 79 78 77 79 79 78 77 79 80 79 75 73 74 77 80 79 77 78 81 81
93 111 112 111 104 97 96 94 94 93 90 88 88 87 87 86 85 84 84 84 81 80 80 82 81 78 78 78 78 77 78 78 78 75 71 70 77 81 80 78 78 80 81
91 92 97 108 106 100 96 97 100 99 95 92 89 88 87 86 85 84 84 85 82 80 81 82 81 79 79 79 78 78 78 77 75 73 67 66 74 82 83 81 79 78 79
74 83 89 102 104 103 98 94 98 100 97 95 92 89 88 86 85 84 84 83 82 82 82 82 82 80 80 81 80 79 78 75 71 69 66 67 74 82 85 85 81 79 79
69 77 91 99 97 99 102 98 95 96 97 95 93 90 89 87 84 83 83 83 82 82 83 84 84 83 83 83 83 80 77 73 68 65 67 69 75 82 85 85 82 83 82
74 68 86 101 100 95 92 94 97 94 93 94 93 91 87 85 85 83 81 80 81 82 84 86 86 85 84 85 84 81 75 72 67 64 65 71 77 82 83 83 82 84 86
82 68 78 99 98 96 92 88 88 94 95 93 92 92 89 85 83 82 82 81 80 80 83 85 85 85 85 84 83 79 73 71 66 62 63 70 79 82 83 83 85 84 87
79 72 66 75 84 88 91 91 87 85 89 90 88 88 88 85 82 80 80 81 80 80 80 82 83 85 84 82 81 77 72 69 62 58 61 70 78 81 83 83 82 85 86
74 71 68 69 74 75 80 87 85 79 78 81 81 81 81 79 77 76 73 78 80 81 80 80 79 83 82 79 77 74 70 65 59 57 58 69 79 81 81 82 82 81 84
87 68 70 68 71 74 76 77 77 76 74 73 73 74 76 71 69 67 70 76 80 81 80 80 78 77 76 75 73 70 65 59 58 53 58 69 77 82 83 81 81 84 84
151 118 76 79 75 77 77 75 73 72 72 70 70 71 73 74 71 70 70 69 74 78 79 76 74 72 67 63 64 66 60 54 52 47 55 68 73 78 82 81 79 81 83
168 145 107 94 88 86 80 79 76 75 73 71 70 71 76 76 71 67 65 61 63 66 66 67 68 63 62 60 59 60 60 57 48 44 50 64 72 74 77 77 75 77 78
162 161 133 106 99 94 92 87 83 78 76 72 69 74 77 72 65 62 61 59 62 64 63 63 64 62 61 61 62 58 56 56 46 40 49 60 66 73 74 76 76 73 69
177 173 162 126 119 109 100 93 90 84 86 86 82 77 79 76 71 67 65 65 65 69 69 65 64 63 59 55 58 58 50 51 50 41 40 52 60 64 70 72 75 73 67
189 184 170 150 135 122 113 108 102 100 99 96 90 84 84 81 78 78 72 67 65 71 74 74 71 69 63 59 53 52 52 48 51 47 42 43 52 59 61 64 65 69 66
194 184 176 166 145 137 131 123 116 114 111 104 98 95 90 86 81 81 81 70 66 77 78 75 70 69 65 55 47 43 48 47 48 49 50 47 45 49 55 54 52 50 54
188 184 183 174 160 155 142 131 123 123 119 114 111 107 102 97 90 82 80 74 77 86 81 78 71 68 60 47 37 32 36 42 48 49 54 53 50 44 44 45 42 37 35
192 187 185 175 169 167 149 133 126 128 124 125 127 121 117 109 104 95 82 83 94 86 77 82 71 73 72 51 32 25 28 39 43 48 54 54 57 53 46 39 38 37 33
190 188 187 178 172 162 145 124 111 111 111 124 139 147 140 134 126 112 92 80 104 98 85 83 86 68 81 70 57 32 12 28 45 46 47 52 55 49 45 40 36 26 25
180 184 187 182 177 164 165 170 170 186 181 171 174 171 172 160 149 135 108 90 101 134 145 122 104 93 63 45 59 36 5 11 51 42 44 51 46 39 40 39 34 28 19
194 196 189 190 185 182 181 178 173 170 183 190 187 176 188 176 164 170 153 159 124 144 150 146 122 124 78 54 76 83 3 332 342 358 19 46 38 39 33 22 23 24 27
205 205 204 193 187 187 174 152 128 110 102 150 189 191 193 195 186 187 183 173 168 163 191 186 178 156 162 203 57 124 148 224 302 310 329 357 20 25 12 5 7 15 17
215 209 206 196 185 182 173 174 174 184 199 207 201 200 204 202 206 202 193 189 189 188 207 202 184 181 166 184 235 11 135 158 191 270 298 307 334 337 334 340 342 345 349
217 207 203 198 188 182 181 185 190 201 206 200 192 198 205 211 216 217 205 201 204 206 211 217 194 186 186 188 187 193 78 353 215 205 259 277 297 297 323 313 300 310 313
226 208 203 201 198 188 187 188 195 201 197 194 204 210 213 218 223 228 220 211 212 215 217 220 209 196 197 196 194 193 193 202 214 212 245 264 278 288 302 301 290 282 285
Height
1517 1520 1522 1523 1525 1526 1527 1528 1529 1530 1531 1532 1532 1533 1534 1534 1535 1535 1536 1536 1537 1537 1538 1538 1539 1539 1540 1540 1541 1542 1542 1543 1544 1544 1545 1546 1546 1547 1547 1548 1548 1548 1549
1517 1519 1521 1523 1525 1526 1527 1528 1529 1530 1531 1532 1533 1534 1534 1535 1535 1536 1536 1537 1538 1538 1539 1539 1540 1541 1541 1542 1542 1543 1543 1544 1545 1546 1547 1547 1548 1549 1549 1549 1550 1550 1551
1516 1519 1521 1523 1525 1526 1527 1528 1529 1530 1531 1532 1533 1534 1535 1535 1536 1536 1537 1538 1538 1539 1539 1540 1541 1542 1542 1543 1544 1544 1545 1545 1546 1547 1548 1549 1549 1550 1550 1551 1551 1552 1552
1516 1518 1520 1522 1524 1526 1527 1528 1529 1530 1531 1533 1533 1534 1535 1536 1536 1537 1538 1538 1539 1540 1540 1541 1542 1542 1543 1544 1545 1545 1546 1547 1547 1548 1549 1550 1550 1551 1552 1552 1553 1553 1554
1515 1518 1520 1522 1524 1526 1527 1528 1529 1530 1532 1533 1533 1534 1535 1536 1537 1537 1538 1539 1539 1540 1541 1542 1543 1543 1544 1545 1545 1546 1547 1548 1548 1549 1550 1551 1551 1552 1553 1553 1554 1554 1555
1515 1517 1519 1521 1523 1525 1527 1528 1529 1530 1531 1532 1533 1534 1535 1536 1537 1537 1538 1539 1540 1541 1542 1543 1543 1544 1545 1546 1546 1547 1548 1548 1549 1550 1551 1552 1552 1553 1554 1554 1555 1555 1556
1514 1517 1519 1521 1523 1524 1526 1528 1529 1530 1531 1532 1533 1534 1535 1536 1537 1537 1538 1539 1540 1541 1542 1543 1544 1544 1545 1546 1547 1548 1548 1549 1550 1551 1551 1552 1553 1554 1554 1555 1555 1556 1557
1514 1516 1518 1520 1522 1524 1525 1527 1528 1530 1531 1532 1533 1534 1534 1535 1536 1537 1538 1539 1540 1541 1542 1543 1544 1545 1545 1546 1547 1548 1549 1550 1550 1551 1552 1553 1554 1554 1555 1555 1556 1557 1557
1514 1516 1517 1519 1521 1523 1524 1526 1527 1529 1530 1531 1532 1533 1534 1535 1536 1537 1538 1539 1539 1540 1541 1542 1543 1544 1545 1546 1547 1548 1549 1550 1551 1551 1552 1553 1554 1555 1555 1556 1556 1557 1558
1513 1515 1517 1518 1520 1522 1523 1525 1526 1528 1529 1530 1531 1532 1533 1534 1535 1536 1537 1538 1539 1540 1541 1542 1543 1544 1545 1546 1547 1548 1549 1550 1551 1552 1553 1553 1554 1555 1555 1556 1557 1557 1558
1512 1514 1516 1517 1519 1520 1522 1524 1525 1527 1528 1529 1530 1532 1533 1534 1535 1536 1536 1537 1538 1539 1540 1541 1542 1543 1544 1545 1546 1547 1548 1549 1551 1552 1552 1554 1554 1555 1555 1556 1557 1557 1558
1509 1512 1514 1516 1517 1519 1521 1522 1524 1525 1527 1528 1529 1531 1532 1533 1534 1535 1536 1537 1537 1538 1539 1540 1541 1543 1544 1545 1546 1547 1548 1549 1550 1551 1552 1553 1554 1555 1555 1556 1556 1557 1557
1508 1510 1512 1514 1516 1517 1519 1521 1522 1524 1525 1527 1528 1530 1531 1532 1533 1534 1535 1536 1537 1538 1538 1540 1541 1542 1543 1544 1545 1546 1547 1548 1549 1550 1551 1552 1553 1554 1555 1555 1556 1556 1557
1506 1508 1510 1512 1514 1516 1517 1519 1521 1522 1523 1525 1527 1528 1529 1530 1531 1532 1533 1534 1535 1536 1537 1538 1540 1541 1542 1543 1544 1545 1546 1547 1548 1549 1550 1551 1552 1553 1554 1554 1555 1556 1556
1505 1506 1508 1510 1512 1514 1516 1517 1519 1520 1522 1523 1525 1526 1528 1529 1530 1531 1532 1533 1534 1535 1536 1537 1538 1540 1541 1542 1543 1544 1545 1546 1547 1548 1549 1550 1551 1552 1552 1553 1554 1555 1555
1502 1504 1506 1508 1510 1512 1514 1515 1517 1519 1520 1522 1523 1525 1526 1527 1528 1530 1531 1531 1532 1533 1534 1535 1537 1538 1539 1540 1541 1543 1544 1545 1546 1546 1547 1548 1549 1550 1551 1552 1552 1553 1554
1499 1502 1504 1506 1508 1510 1512 1514 1515 1517 1518 1520 1521 1522 1524 1525 1526 1527 1529 1529 1530 1531 1533 1534 1535 1536 1537 1539 1540 1541 1542 1543 1544 1545 1545 1546 1547 1548 1549 1550 1550 1551 1552
1497 1499 1501 1503 1505 1507 1509 1511 1513 1515 1516 1517 1519 1520 1522 1523 1524 1525 1526 1527 1528 1529 1531 1532 1533 1534 1535 1536 1537 1539 1540 1541 1542 1543 1544 1544 1545 1546 1547 1547 1548 1549 1549
1493 1496 1498 1500 1502 1505 1507 1509 1511 1512 1514 1515 1516 1518 1519 1520 1521 1522 1524 1525 1526 1527 1528 1529 1531 1532 1533 1534 1535 1536 1537 1539 1540 1541 1541 1542 1543 1544 1544 1545 1546 1546 1547
1490 1492 1494 1497 1499 1502 1504 1506 1508 1509 1511 1512 1513 1514 1516 1517 1519 1520 1521 1522 1523 1524 1526 1527 1528 1529 1530 1531 1532 1534 1535 1536 1537 1538 1539 1539 1540 1541 1541 1542 1543 1543 1544
1487 1489 1491 1493 1495 1498 1500 1502 1504 1505 1507 1509 1510 1512 1513 1514 1515 1517 1518 1519 1520 1521 1523 1524 1525 1526 1527 1529 1529 1530 1532 1533 1534 1534 1535 1536 1537 1538 1538 1539 1539 1540 1541
1482 1485 1487 1489 1491 1494 1496 1499 1501 1502 1504 1506 1507 1509 1510 1511 1512 1513 1515 1516 1517 1519 1520 1521 1522 1523 1524 1526 1527 1527 1528 1530 1530 1531 1532 1533 1534 1535 1535 1536 1536 1537 1537
1479 1481 1483 1485 1487 1490 1493 1495 1497 1499 1500 1502 1503 1504 1506 1507 1509 1510 1511 1512 1513 1515 1516 1517 1519 1520 1521 1523 1524 1526 1526 1526 1526 1527 1527 1529 1530 1531 1532 1532 1533 1533 1534
1475 1477 1479 1481 1483 1486 1488 1490 1492 1493 1494 1496 1498 1500 1502 1504 1505 1506 1507 1509 1510 1511 1512 1513 1515 1516 1518 1519 1521 1522 1524 1524 1524 1523 1524 1525 1526 1527 1528 1528 1529 1529 1530
1472 1473 1475 1478 1480 1482 1484 1486 1487 1489 1491 1493 1494 1496 1497 1499 1500 1502 1503 1504 1506 1507 1508 1509 1511 1512 1513 1515 1516 1518 1519 1520 1521 1520 1519 1520 1521 1522 1523 1524 1525 1525 1526
1468 1470 1471 1473 1476 1478 1479 1481 1483 1485 1486 1488 1489 1491 1492 1494 1495 1497 1498 1500 1501 1502 1504 1505 1506 1507 1509 1511 1512 1514 1515 1516 1516 1517 1516 1515 1516 1517 1518 1519 1520 1521 1521